Terminal Aerodrome Forecast
Issued by NWS

Home | Current Version | Previous Version | Text Only | Print | Product List | Glossary On
Versions: 1 2 3 4 5 6 7 8 9 10 11 12 13 14 15 16 17 18 19 20 21
000
FTAK31 PANC 190401 AAB
TAFAIL
TAF AMD
PAIL 190401Z 1904/1924 VRB05KT P6SM VCFG SCT010 OVC028
      TEMPO 1904/1908 P6SM OVC010
     FM191200 04007KT P6SM VCFG OVC100=

USA.gov is the U.S. government's official web portal to all federal, state and local government web resources and services.